Location: Bonningues
(50.7927°N, 2.0150°E)
Time: 21:37:07
(UTC+00:00)

Iridium 4 Rocket - Pass Details

Date: 08 August 2020
Orbit: 586 x 903 km, 86.9° (Epoch: 21 September)

Event Time Altitude Azimuth Distance (km) Brightness Sun altitude
Exits shadow 22:21:44 50° 175° (S) 795 3.2 -20.2°
Maximum altitude 22:22:50 84° 92° (E) 626 2.9 -20.3°
Drops below altitude 10° 22:27:05 10° 5° (N) 1,945 6.5 -20.5°
Sets 22:29:15 0° 4° (N) 2,837 7.5 -20.7°
